• Em Portugal
  • Lista de países
  • Para 7 dias
  • Temperatura da água
  • Mapas de satélite
  • Mapa do tempo
  • Widgets de tempo
  • user-avatar
    Iniciar Sessão

    Previsão horária em Satif

    Hoje, 16 Agosto, Quinta-feira

    Tempo Temperatura Precipitação Vento Pressão Humidade
    00:00 +20°C° 0 mm 2 m/s 674 mmHg 70%
    01:00 +21°C° 0 mm 1 m/s 673 mmHg 71%
    02:00 +21°C° 0 mm 1 m/s 673 mmHg 72%
    03:00 +20°C° 0 mm 1 m/s 673 mmHg 72%
    04:00 +21°C° 0 mm 1 m/s 673 mmHg 71%
    05:00 +21°C° 0 mm 1 m/s 673 mmHg 70%
    06:00 +19°C° 0 mm 0 m/s 673 mmHg 69%
    07:00 +22°C° 0 mm 1 m/s 673 mmHg 61%
    08:00 +24°C° 0 mm 1 m/s 674 mmHg 53%
    09:00 +25°C° 0 mm 1 m/s 674 mmHg 44%
    10:00 +27°C° 0 mm 2 m/s 674 mmHg 40%
    11:00 +28°C° 0 mm 3 m/s 675 mmHg 35%
    12:00 +30°C° 0 mm 3 m/s 675 mmHg 31%
    13:00 +30°C° 0 mm 4 m/s 674 mmHg 31%
    14:00 +30°C° 0 mm 4 m/s 674 mmHg 31%
    15:00 +30°C° 0 mm 4 m/s 674 mmHg 31%
    16:00 +29°C° 0 mm 3 m/s 674 mmHg 37%
    17:00 +27°C° 0 mm 3 m/s 673 mmHg 42%
    18:00 +26°C° 0 mm 2 m/s 673 mmHg 47%
    19:00 +26°C° 0,1 mm 2 m/s 673 mmHg 50%
    20:00 +25°C° 0,1 mm 1 m/s 674 mmHg 52%
    21:00 +25°C° 0,1 mm 1 m/s 674 mmHg 54%
    22:00 +24°C° 0,1 mm 1 m/s 674 mmHg 55%
    23:00 +24°C° 0,1 mm 1 m/s 673 mmHg 57%

    Amanhã, 17 Agosto, Sexta-feira

    Tempo Temperatura Precipitação Vento Pressão Humidade
    00:00 +24°C° 0,1 mm 1 m/s 673 mmHg 58%
    01:00 +23°C° 0 mm 1 m/s 673 mmHg 59%
    02:00 +23°C° 0 mm 1 m/s 673 mmHg 61%
    03:00 +23°C° 0 mm 1 m/s 672 mmHg 62%
    04:00 +23°C° 0,1 mm 1 m/s 673 mmHg 63%
    05:00 +22°C° 0,1 mm 1 m/s 673 mmHg 64%
    06:00 +22°C° 0,1 mm 1 m/s 673 mmHg 65%
    07:00 +23°C° 0 mm 1 m/s 673 mmHg 59%
    08:00 +25°C° 0 mm 1 m/s 674 mmHg 53%
    09:00 +26°C° 0 mm 1 m/s 675 mmHg 48%
    10:00 +27°C° 0 mm 2 m/s 675 mmHg 44%
    11:00 +28°C° 0 mm 2 m/s 675 mmHg 40%
    12:00 +29°C° 0 mm 3 m/s 675 mmHg 37%
    13:00 +29°C° 0,1 mm 3 m/s 675 mmHg 38%
    14:00 +29°C° 0,1 mm 3 m/s 675 mmHg 39%
    15:00 +28°C° 0,1 mm 3 m/s 674 mmHg 40%
    16:00 +28°C° 0 mm 3 m/s 674 mmHg 43%
    17:00 +27°C° 0 mm 3 m/s 674 mmHg 47%
    18:00 +26°C° 0 mm 3 m/s 674 mmHg 50%
    19:00 +25°C° 0 mm 3 m/s 674 mmHg 55%
    20:00 +24°C° 0 mm 3 m/s 674 mmHg 60%
    21:00 +22°C° 0 mm 3 m/s 675 mmHg 65%
    22:00 +23°C° 0,1 mm 2 m/s 674 mmHg 67%
    23:00 +21°C° 0,1 mm 2 m/s 674 mmHg 69%

    Depois de amanhã, 18 Agosto, Sábado

    Tempo Temperatura Precipitação Vento Pressão Humidade
    00:00 +21°C° 0,1 mm 2 m/s 674 mmHg 71%
    01:00 +20°C° 0,1 mm 2 m/s 674 mmHg 72%
    02:00 +20°C° 0,1 mm 2 m/s 674 mmHg 74%
    03:00 +20°C° 0,1 mm 2 m/s 674 mmHg 75%
    04:00 +20°C° 0,2 mm 2 m/s 674 mmHg 75%
    05:00 +20°C° 0,2 mm 2 m/s 674 mmHg 75%
    06:00 +20°C° 0,2 mm 2 m/s 674 mmHg 76%
    07:00 +21°C° 0,1 mm 2 m/s 675 mmHg 70%
    08:00 +23°C° 0,1 mm 2 m/s 675 mmHg 63%
    09:00 +24°C° 0,1 mm 2 m/s 676 mmHg 57%
    10:00 +25°C° 0,4 mm 2 m/s 676 mmHg 53%
    11:00 +26°C° 0,4 mm 2 m/s 676 mmHg 48%
    12:00 +27°C° 0,4 mm 2 m/s 676 mmHg 44%
    13:00 +28°C° 0,3 mm 2 m/s 676 mmHg 43%
    14:00 +28°C° 0,3 mm 3 m/s 676 mmHg 42%
    15:00 +28°C° 0,3 mm 3 m/s 676 mmHg 41%
    16:00 +27°C° 0,3 mm 3 m/s 676 mmHg 45%
    17:00 +27°C° 0,3 mm 4 m/s 676 mmHg 49%
    18:00 +26°C° 0,3 mm 4 m/s 675 mmHg 53%
    19:00 +25°C° 0 mm 3 m/s 675 mmHg 58%
    20:00 +24°C° 0 mm 3 m/s 675 mmHg 63%
    21:00 +22°C° 0 mm 3 m/s 675 mmHg 69%
    22:00 +21°C° 0 mm 2 m/s 675 mmHg 71%
    23:00 +21°C° 0 mm 2 m/s 675 mmHg 73%

    19 Agosto, Domingo

    Tempo Temperatura Precipitação Vento Pressão Humidade
    00:00 +21°C° 0 mm 2 m/s 675 mmHg 75%
    01:00 +20°C° 0 mm 2 m/s 675 mmHg 76%
    02:00 +21°C° 0 mm 1 m/s 675 mmHg 78%
    03:00 +21°C° 0 mm 1 m/s 675 mmHg 79%
    04:00 +21°C° 0 mm 1 m/s 675 mmHg 79%
    05:00 +21°C° 0 mm 1 m/s 675 mmHg 79%
    06:00 +21°C° 0 mm 1 m/s 675 mmHg 80%
    07:00 +22°C° 0 mm 1 m/s 676 mmHg 73%
    08:00 +23°C° 0 mm 1 m/s 676 mmHg 66%
    09:00 +25°C° 0 mm 1 m/s 676 mmHg 59%
    10:00 +26°C° 0 mm 2 m/s 677 mmHg 53%
    11:00 +27°C° 0 mm 2 m/s 677 mmHg 48%
    12:00 +28°C° 0 mm 3 m/s 677 mmHg 42%
    13:00 +29°C° 0 mm 3 m/s 677 mmHg 41%
    14:00 +29°C° 0 mm 3 m/s 676 mmHg 40%
    15:00 +29°C° 0 mm 3 m/s 676 mmHg 40%
    16:00 +28°C° 0,1 mm 3 m/s 676 mmHg 43%
    17:00 +27°C° 0,1 mm 4 m/s 676 mmHg 46%
    18:00 +26°C° 0,1 mm 4 m/s 675 mmHg 49%
    19:00 +25°C° 0,2 mm 4 m/s 675 mmHg 54%
    20:00 +24°C° 0,2 mm 3 m/s 676 mmHg 58%
    21:00 +23°C° 0,2 mm 2 m/s 676 mmHg 63%
    22:00 +23°C° 0 mm 2 m/s 675 mmHg 64%
    23:00 +21°C° 0 mm 2 m/s 675 mmHg 66%

    20 Agosto, Segunda-feira

    Tempo Temperatura Precipitação Vento Pressão Humidade
    00:00 +21°C° 0 mm 2 m/s 675 mmHg 67%
    01:00 +21°C° 0,1 mm 2 m/s 674 mmHg 68%
    02:00 +21°C° 0,1 mm 1 m/s 674 mmHg 70%
    03:00 +21°C° 0,1 mm 1 m/s 674 mmHg 71%
    04:00 +21°C° 0 mm 1 m/s 674 mmHg 72%
    05:00 +20°C° 0 mm 2 m/s 674 mmHg 73%
    06:00 +19°C° 0 mm 2 m/s 674 mmHg 73%
    07:00 +21°C° 0 mm 2 m/s 674 mmHg 66%
    08:00 +22°C° 0 mm 3 m/s 675 mmHg 59%
    09:00 +24°C° 0 mm 3 m/s 675 mmHg 52%
    10:00 +25°C° 0 mm 3 m/s 675 mmHg 48%
    11:00 +26°C° 0 mm 3 m/s 675 mmHg 43%
    12:00 +27°C° 0 mm 3 m/s 676 mmHg 38%
    13:00 +27°C° 0 mm 4 m/s 675 mmHg 37%
    14:00 +27°C° 0 mm 4 m/s 675 mmHg 36%
    15:00 +27°C° 0 mm 4 m/s 675 mmHg 35%
    16:00 +26°C° 0 mm 4 m/s 675 mmHg 38%
    17:00 +25°C° 0 mm 4 m/s 675 mmHg 41%
    18:00 +23°C° 0 mm 4 m/s 675 mmHg 44%
    19:00 +22°C° 0 mm 4 m/s 675 mmHg 49%
    20:00 +22°C° 0 mm 3 m/s 675 mmHg 54%
    21:00 +21°C° 0 mm 3 m/s 675 mmHg 58%
    22:00 +20°C° 0 mm 2 m/s 675 mmHg 60%
    23:00 +20°C° 0 mm 2 m/s 674 mmHg 62%

    21 Agosto, Terça-feira

    Tempo Temperatura Precipitação Vento Pressão Humidade
    00:00 +20°C° 0 mm 1 m/s 674 mmHg 64%
    01:00 +20°C° 0 mm 1 m/s 674 mmHg 65%
    02:00 +20°C° 0 mm 1 m/s 674 mmHg 67%
    03:00 +19°C° 0 mm 1 m/s 673 mmHg 68%
    04:00 +19°C° 0 mm 1 m/s 674 mmHg 68%
    05:00 +19°C° 0 mm 1 m/s 674 mmHg 68%
    06:00 +19°C° 0 mm 1 m/s 674 mmHg 67%
    07:00 +21°C° 0 mm 1 m/s 674 mmHg 60%
    08:00 +22°C° 0 mm 1 m/s 675 mmHg 53%
    09:00 +23°C° 0 mm 1 m/s 675 mmHg 45%
    10:00 +24°C° 0 mm 1 m/s 675 mmHg 41%
    11:00 +26°C° 0 mm 1 m/s 675 mmHg 36%
    12:00 +27°C° 0 mm 1 m/s 675 mmHg 31%
    13:00 +27°C° 0 mm 1 m/s 675 mmHg 31%
    14:00 +28°C° 0 mm 2 m/s 675 mmHg 31%
    15:00 +28°C° 0 mm 2 m/s 675 mmHg 31%
    16:00 +27°C° 0,3 mm 2 m/s 675 mmHg 35%
    17:00 +27°C° 0,3 mm 2 m/s 674 mmHg 39%
    18:00 +26°C° 0,3 mm 3 m/s 674 mmHg 44%
    19:00 +25°C° 0,2 mm 3 m/s 674 mmHg 50%
    20:00 +24°C° 0,2 mm 3 m/s 674 mmHg 56%
    21:00 +22°C° 0,2 mm 3 m/s 674 mmHg 62%
    22:00 +23°C° 0,1 mm 2 m/s 674 mmHg 64%
    23:00 +21°C° 0,1 mm 2 m/s 674 mmHg 66%
    Mostrar mais